This is the latest recevied weather packets stored in our database for station/object DG8SF-13. If no packets are shown the sender has not sent any weather packets the latest 10 day(s).
| Time | Temp. | Humidity | Pressure | Rain* | Wind** | Luminosity | Snow |
|---|---|---|---|---|---|---|---|
| 1777928935 | 12.78° C | 84% | 1011.5 hPa | 0 mm | - | - | - |
| 1777928620 | 12.78° C | 83% | 1011.4 hPa | 0 mm | - | - | - |
| 1777928311 | 12.78° C | 83% | 1011.4 hPa | 0 mm | - | - | - |
| 1777927998 | 12.78° C | 84% | 1011.6 hPa | 0.51 mm | - | - | - |
| 1777927687 | 12.78° C | 85% | 1011.7 hPa | 0.51 mm | - | - | - |
| 1777927374 | 12.78° C | 83% | 1011.7 hPa | 0.51 mm | - | - | - |
| 1777927065 | 12.78° C | 84% | 1011.8 hPa | 0.51 mm | - | - | - |
| 1777926751 | 12.78° C | 83% | 1011.8 hPa | 0.51 mm | - | - | - |
| 1777926439 | 12.78° C | 82% | 1011.8 hPa | 0.51 mm | - | - | - |
| 1777926126 | 12.78° C | 83% | 1011.8 hPa | 0.51 mm | - | - | - |
| 1777925816 | 13.33° C | 83% | 1011.9 hPa | 0.76 mm | - | - | - |
| 1777925502 | 13.33° C | 84% | 1011.8 hPa | 1.52 mm | - | - | - |
| 1777925191 | 12.78° C | 85% | 1011.8 hPa | 2.03 mm | - | - | - |
| 1777924877 | 13.33° C | 85% | 1011.8 hPa | 2.03 mm | - | - | - |
| 1777924568 | 13.33° C | 86% | 1011.8 hPa | 2.03 mm | - | - | - |
| 1777924254 | 13.33° C | 85% | 1011.9 hPa | 1.52 mm | - | - | - |
| 1777923943 | 13.33° C | 88% | 1012 hPa | 1.52 mm | - | - | - |
| 1777923630 | 13.33° C | 87% | 1012 hPa | 1.52 mm | - | - | - |
| 1777923319 | 13.33° C | 87% | 1012.1 hPa | 1.52 mm | - | - | - |
| 1777923007 | 13.33° C | 85% | 1012 hPa | 1.52 mm | - | - | - |
| 1777922697 | 13.89° C | 83% | 1012 hPa | 1.52 mm | - | - | - |
| 1777922382 | 13.89° C | 82% | 1011.9 hPa | 1.52 mm | - | - | - |
| 1777922072 | 14.44° C | 78% | 1011.9 hPa | 1.27 mm | - | - | - |
| 1777921756 | 15° C | 74% | 1012.1 hPa | 0.51 mm | - | - | - |
| 1777921447 | 15.56° C | 71% | 1011.7 hPa | 0 mm | - | - | - |
* Rain latest hour (hover to see other rain measurements)
** Current wind speed in m/s (hover to see current wind gust speed)